Location: Chittendens Corners
(41.2320°N, 81.4940°W)
Time: 18:49:00
(UTC+00:00)

Cosmos 1300 - Pass Details

Date: 29 October 2020
Orbit: 511 x 513 km, 82.5° (Epoch: 24 November)

Event Time Altitude Azimuth Distance (km) Brightness Sun altitude
Rises 23:23:10 0° 205° (SSW) 2,614 6.8 -11.6°
Reaches altitude 10° 23:25:24 10° 214° (SW) 1,733 6.0 -12.0°
Maximum altitude 23:28:55 36° 282° (WNW) 825 4.4 -12.7°
Drops below altitude 10° 23:32:29 10° 351° (N) 1,747 5.4 -13.3°
Sets 23:34:45 0° 360° (N) 2,638 6.2 -13.7°
